Temperature
19 19 19 19 19 19 19 19 19 18 18 18 18 18 17 17 17 17 17 16 16 16 16 16 16 15 15 15 15 15 15 15 15 15 15 16 16 16 16 16 17 17 17
19 19 19 19 19 19 19 19 19 18 18 18 18 18 17 17 17 16 16 16 16 16 16 15 15 15 15 15 14 14 14 14 14 14 14 15 15 16 16 16 16 16 16
19 19 19 19 19 19 19 19 19 18 18 18 18 17 17 17 16 16 16 16 16 15 15 15 15 15 14 14 14 14 14 14 14 14 14 14 14 14 15 16 16 16 16
19 19 19 19 19 19 19 19 19 18 18 18 17 17 17 16 16 16 16 15 15 15 15 15 14 14 14 14 14 14 13 13 13 13 13 13 13 13 14 15 15 15 16
20 20 20 20 19 19 19 19 19 18 18 17 17 17 16 16 16 15 15 15 15 15 14 14 14 14 14 14 13 13 13 13 13 13 13 13 13 13 13 13 14 15 15
20 20 20 20 20 19 19 19 18 18 17 17 17 16 16 16 15 15 15 15 14 14 14 14 14 13 13 13 13 13 13 13 12 12 12 12 12 12 12 13 13 14 14
20 20 20 20 20 19 19 19 18 18 17 17 16 16 16 15 15 15 14 14 14 14 14 14 13 13 13 13 13 12 12 12 12 12 12 12 12 12 12 12 12 13 13
21 21 21 20 20 20 19 19 18 18 17 17 16 16 16 15 15 15 14 14 14 13 13 13 13 13 13 12 12 12 12 12 12 12 12 12 12 12 12 12 12 12 13
21 21 21 21 20 20 20 19 19 18 17 17 16 16 15 15 15 14 14 14 13 13 13 13 13 13 12 12 12 12 12 12 11 11 11 11 12 11 11 11 11 11 11
22 22 21 21 21 20 20 19 19 18 18 17 16 16 15 15 15 14 14 14 13 13 13 13 13 13 12 12 12 12 11 11 11 11 11 11 11 11 11 11 11 11 11
22 22 22 21 21 20 20 19 19 18 18 17 17 16 16 15 15 14 14 14 13 13 13 13 12 12 12 12 12 11 11 11 11 11 11 11 11 11 11 11 11 11 11
23 22 22 21 21 20 20 19 19 18 18 17 17 16 16 15 15 14 14 14 13 13 13 13 12 12 12 12 11 11 11 11 11 11 11 11 11 11 11 11 11 11 11
23 22 22 21 21 20 20 19 19 18 18 17 17 16 16 15 15 15 14 14 13 13 13 13 12 12 12 11 11 11 11 11 11 11 11 11 10 10 10 10 10 11 11
23 22 22 21 21 21 20 20 19 18 18 17 17 16 16 16 15 15 14 14 14 13 13 12 12 12 12 11 11 11 11 11 10 10 10 10 10 10 10 10 10 10 10
22 22 22 21 21 21 20 20 19 19 18 18 17 17 16 16 15 15 14 14 14 13 13 12 12 12 12 12 11 11 11 10 10 10 10 10 10 10 10 10 10 10 10
22 22 22 22 21 21 20 20 19 19 18 18 17 17 16 16 15 15 14 14 14 13 13 13 12 12 12 11 11 11 11 11 10 10 10 10 10 10 10 9 9 9 9
23 23 22 22 22 21 21 20 20 19 18 18 17 17 16 16 15 15 15 14 14 14 13 13 12 12 12 12 11 11 11 11 11 10 10 10 10 10 9 9 9 9 9
23 23 23 22 22 21 21 20 20 19 18 18 18 17 17 16 16 15 15 14 14 14 13 13 13 12 12 12 11 11 11 11 11 10 10 10 10 10 9 9 9 9 9
24 23 23 22 22 21 21 20 20 19 19 18 18 17 17 16 16 15 15 15 14 14 13 13 13 13 12 12 12 11 11 11 11 10 10 10 9 9 9 9 9 9 9
23 23 23 22 22 21 21 20 20 19 19 18 18 17 17 16 16 15 15 15 14 14 14 13 13 13 12 12 12 11 11 11 11 10 10 10 9 9 9 9 9 9 9
23 23 22 22 22 21 21 20 20 19 19 18 18 17 17 16 16 15 15 15 14 14 13 13 13 13 12 12 12 11 11 11 11 10 10 10 9 9 9 9 8 8 8
22 22 22 21 21 21 20 20 20 19 18 18 17 17 16 16 16 15 15 15 14 14 14 13 13 13 13 12 12 12 11 11 10 10 10 10 9 9 9 9 8 8 8
21 21 21 21 20 20 20 19 19 18 18 17 17 17 16 16 15 15 15 14 14 14 14 13 13 13 13 12 12 12 11 11 10 10 10 10 9 9 9 9 8 8 8
20 20 20 20 20 19 19 18 18 18 17 17 16 16 16 15 15 15 14 14 14 14 14 13 13 13 13 13 12 12 11 11 11 10 10 10 9 9 9 9 9 8 8
19 19 19 19 18 18 18 17 17 17 16 16 16 15 15 15 14 14 14 14 14 13 13 13 13 13 13 13 12 12 11 11 11 10 10 10 9 9 9 9 9 9 8
17 17 17 17 17 17 16 16 16 15 15 15 15 14 14 14 13 13 13 13 13 13 13 13 13 13 13 12 12 12 12 11 11 10 10 10 10 9 9 9 9 9 8
Wind_Speed
5 6 7 9 9 8 8 7 7 5 4 3 3 3 2 1 1 2 4 5 6 6 5 3 2 3 2 2 2 1 1 2 1 2 4 4 4 5 5 4 4 5 9
6 7 7 8 8 8 8 8 7 5 4 3 2 2 2 1 2 1 2 2 4 6 5 4 3 3 3 3 3 2 1 2 2 1 2 4 5 4 3 2 3 4 4
10 10 10 8 8 8 8 8 7 6 5 4 3 4 4 4 3 3 2 1 2 3 4 4 3 3 3 2 2 2 2 1 2 1 2 0 3 4 4 3 3 3 2
10 10 10 10 9 9 8 8 7 7 5 5 5 5 4 3 1 1 1 2 2 0 2 3 4 3 2 2 1 2 1 1 1 2 0 2 4 2 4 4 4 4 3
11 11 12 11 10 10 9 8 8 7 6 6 7 6 4 3 1 1 2 3 3 3 2 3 3 2 2 1 1 1 1 1 2 2 2 1 1 2 2 4 5 5 4
11 11 11 10 9 9 9 8 8 7 6 7 7 7 6 4 3 2 2 2 2 3 3 3 3 2 2 1 1 1 1 1 2 2 2 2 2 2 2 3 4 5 5
12 11 12 12 11 11 10 9 9 7 7 7 7 7 6 5 4 3 2 1 1 1 1 2 1 1 1 2 1 1 2 2 3 3 3 3 4 3 3 3 4 4 4
13 13 14 13 13 13 12 11 10 8 8 7 6 6 6 5 3 3 3 2 2 2 1 1 1 1 2 2 1 2 3 3 3 4 4 3 4 3 4 4 3 3 4
14 14 13 13 13 13 12 12 11 9 8 8 7 6 6 5 4 3 2 2 2 2 2 1 1 2 2 2 2 3 4 3 4 5 5 4 4 4 4 4 4 4 4
13 13 12 12 11 11 10 11 11 10 8 8 7 6 6 6 5 4 3 3 3 2 2 2 2 3 3 3 3 3 4 4 4 4 4 4 4 4 4 4 4 4 5
15 14 12 11 11 11 11 10 10 8 8 8 7 7 6 5 5 4 4 3 3 3 3 3 3 4 4 4 3 4 5 5 5 5 4 5 5 4 4 4 4 4 4
14 13 12 11 11 12 11 11 10 9 8 8 7 7 6 5 4 4 4 4 4 4 4 4 4 4 5 4 5 6 6 5 6 6 5 6 5 5 5 4 5 5 5
12 11 12 12 12 12 11 10 10 9 8 8 7 7 6 6 6 5 5 4 4 4 4 4 5 5 5 6 6 6 6 6 6 6 6 6 6 6 5 5 6 5 6
14 13 13 12 12 12 11 11 10 9 9 8 8 7 7 7 7 6 6 5 5 5 5 5 6 6 6 6 6 6 6 6 6 6 6 7 7 7 7 6 7 6 6
15 15 15 13 12 11 10 10 9 9 9 9 8 8 7 7 6 6 6 6 5 6 6 5 6 6 5 6 6 5 6 6 6 7 7 7 9 11 9 7 6 6 5
16 16 15 14 14 13 12 10 10 9 9 9 9 8 7 7 6 6 6 5 5 5 5 6 6 6 6 8 10 8 6 6 7 7 7 8 9 11 12 13 11 10 8
16 17 16 16 15 14 13 12 11 9 9 9 8 8 7 7 7 6 6 6 6 5 6 6 6 7 9 12 13 12 8 7 7 8 7 7 8 9 7 10 11 11 13
15 15 14 13 12 11 10 10 9 9 9 9 8 8 7 7 7 6 6 6 5 6 6 7 7 7 9 13 13 13 8 7 8 8 8 8 9 10 9 8 8 8 9
12 12 13 12 11 11 11 10 9 9 9 9 9 8 8 8 7 7 7 6 5 6 6 6 7 8 10 13 13 12 6 7 8 8 8 8 9 12 12 8 8 9 9
7 9 9 9 10 11 10 10 9 9 9 10 9 8 8 8 8 8 7 6 6 7 7 7 8 9 10 12 14 12 5 7 7 7 7 10 11 12 10 7 7 9 9
6 7 8 9 10 9 10 10 9 10 10 8 7 7 7 7 7 7 6 6 6 7 7 8 9 9 10 12 14 13 7 7 7 7 7 7 11 12 11 9 8 12 10
3 6 7 6 6 8 9 8 9 8 7 6 6 6 7 6 6 6 7 6 7 7 8 8 9 8 8 10 12 14 13 11 8 8 7 8 11 12 12 10 12 15 11
3 4 6 6 4 5 7 8 7 5 5 5 5 5 6 6 6 6 7 6 6 6 7 7 8 9 7 8 13 13 14 14 9 8 11 12 13 12 11 14 16 12 7
2 3 4 5 4 3 3 4 3 3 4 5 5 4 5 5 5 5 5 6 7 7 8 8 8 8 7 7 6 6 7 8 8 7 8 11 13 12 12 11 10 8 8
3 4 4 3 3 3 3 2 1 1 2 3 4 4 4 5 6 6 6 8 8 9 9 8 8 8 8 11 12 8 6 6 6 4 3 4 5 6 7 7 7 7 7
5 5 4 4 4 4 4 3 3 2 1 3 4 4 4 5 5 7 8 11 12 15 16 16 13 10 13 14 13 14 13 11 8 4 5 6 7 8 8 8 8 7 7
Wind_Direction
187 175 150 147 138 131 127 121 115 113 107 97 98 102 103 108 112 149 164 161 149 138 128 116 98 86 80 47 12 6 345 320 342 360 325 311 287 272 261 255 251 246 242
172 172 163 153 145 142 135 128 126 129 125 122 131 132 125 111 110 83 98 138 138 138 140 137 128 112 93 56 39 43 28 338 22 73 4 338 334 328 300 291 268 266 258
175 171 166 161 155 153 148 143 141 136 129 118 95 77 63 52 46 46 37 28 108 138 149 155 142 129 114 93 56 76 84 341 333 72 137 141 287 313 319 323 316 308 281
175 170 167 166 165 163 154 149 144 140 137 123 110 110 110 108 124 124 35 4 15 354 169 154 145 138 130 124 111 107 113 123 313 324 246 199 203 244 309 317 320 321 303
180 178 176 172 170 165 159 153 146 144 141 134 129 120 118 134 132 82 47 19 4 13 65 121 129 132 134 138 119 73 78 158 202 246 280 295 273 205 213 292 317 325 306
184 183 178 169 167 163 159 154 150 154 151 140 134 133 134 128 103 76 51 23 15 22 45 91 110 130 141 166 204 228 266 255 243 237 227 223 243 253 233 259 292 299 296
180 180 175 173 172 170 167 161 157 159 157 148 145 146 145 136 133 140 127 103 48 19 11 74 106 146 207 217 209 227 263 260 255 251 245 234 228 221 211 226 265 283 294
184 186 183 178 177 175 171 166 165 163 164 159 160 155 147 143 153 163 163 167 184 203 197 141 166 248 256 253 236 242 258 254 256 263 257 252 250 230 217 216 230 285 298
187 187 184 178 176 175 175 172 167 165 170 168 162 160 158 159 170 179 170 182 201 198 180 197 246 263 263 261 253 250 263 265 258 261 262 255 254 247 237 223 204 213 264
189 186 183 179 176 172 169 166 164 168 172 170 168 164 169 170 172 169 180 198 212 212 223 254 262 271 273 272 259 257 262 263 265 258 264 264 259 259 252 239 228 209 215
188 186 181 174 166 161 161 163 166 167 168 170 168 162 171 171 167 172 192 200 209 214 223 236 246 258 263 263 254 254 260 259 266 270 264 266 263 262 263 255 244 232 210
183 177 169 161 160 161 164 167 170 172 176 174 169 171 174 172 177 193 205 200 205 217 225 231 241 252 254 252 246 254 258 252 258 264 263 267 271 263 260 256 253 248 231
170 164 162 164 167 167 168 170 173 176 176 169 167 172 179 184 195 206 211 211 215 226 234 233 240 248 253 253 250 245 250 248 249 250 250 256 259 261 259 256 254 254 256
166 163 165 170 171 171 171 171 176 176 170 166 170 181 193 198 204 208 212 218 220 226 237 239 242 246 249 251 250 246 246 249 251 251 248 249 245 248 252 257 251 250 253
167 169 170 172 173 173 174 174 175 175 169 168 178 195 201 202 203 210 219 226 229 231 233 240 249 252 252 247 236 236 242 244 255 259 256 255 255 251 248 252 246 243 243
173 173 173 173 176 177 178 177 178 179 172 176 191 198 197 200 207 216 222 228 235 239 239 243 248 255 256 249 240 234 239 243 247 256 261 265 266 265 263 261 256 239 233
175 176 179 180 182 182 179 180 183 178 177 187 196 198 197 204 214 217 215 224 231 234 242 248 249 253 258 260 259 252 237 237 243 247 254 266 269 268 264 268 272 264 251
179 181 181 182 183 180 180 179 175 176 184 193 200 201 199 208 213 214 221 228 228 232 242 248 250 253 261 260 258 257 242 238 244 244 245 251 263 267 258 260 265 261 259
179 182 185 181 177 179 177 172 179 183 188 198 204 206 203 207 211 218 227 228 226 236 241 246 249 253 263 263 258 254 235 242 251 251 250 247 255 263 263 255 257 265 267
172 174 174 173 176 181 169 170 184 188 200 205 206 206 203 205 213 221 228 229 226 236 244 252 250 249 257 263 259 248 222 241 254 259 257 254 255 259 260 243 243 256 263
165 162 161 172 187 179 166 175 182 198 205 201 200 201 203 209 217 225 231 233 234 242 247 255 260 257 256 264 263 248 216 227 243 253 256 253 255 256 258 247 236 247 255
146 154 159 175 181 170 166 177 195 205 191 185 194 205 212 219 220 224 239 239 235 243 252 257 268 267 262 256 258 250 233 225 227 243 248 249 254 256 259 258 252 254 257
145 157 160 158 161 167 167 184 211 198 183 188 205 217 224 230 230 229 243 252 246 244 253 253 261 268 264 257 253 252 245 235 226 240 245 253 259 263 266 262 258 257 247
105 117 130 148 166 167 167 189 196 174 174 195 218 230 239 252 255 250 246 250 254 253 254 254 257 261 262 257 251 245 245 243 238 247 259 266 267 264 259 264 263 246 233
61 83 107 115 98 78 66 37 39 130 194 234 246 253 252 258 269 268 258 254 251 249 245 249 247 247 257 253 235 223 228 224 228 236 261 265 270 271 268 265 259 248 236
60 67 70 75 75 74 51 24 16 31 6 308 300 290 284 279 277 281 288 276 264 268 258 248 244 244 244 252 247 237 234 231 213 201 245 259 260 261 264 265 265 254 242
Height
1523 1525 1527 1529 1531 1532 1534 1535 1537 1538 1540 1541 1541 1542 1543 1543 1543 1543 1544 1544 1544 1544 1544 1544 1543 1543 1542 1542 1541 1541 1540 1540 1540 1539 1538 1537 1537 1537 1538 1539 1539 1540 1541
1524 1526 1527 1529 1531 1532 1534 1535 1536 1539 1539 1540 1541 1541 1542 1542 1543 1543 1543 1543 1543 1543 1543 1542 1542 1541 1540 1540 1539 1538 1538 1538 1538 1537 1536 1535 1535 1534 1535 1535 1536 1536 1537
1524 1526 1527 1529 1531 1532 1533 1534 1536 1538 1539 1540 1540 1540 1541 1541 1542 1542 1542 1542 1542 1542 1541 1540 1540 1539 1538 1538 1537 1537 1536 1536 1536 1536 1536 1535 1533 1533 1532 1533 1533 1533 1533
1523 1525 1527 1528 1530 1531 1533 1534 1536 1537 1538 1539 1539 1539 1540 1540 1540 1540 1540 1540 1540 1540 1539 1538 1538 1537 1537 1536 1536 1535 1534 1534 1534 1534 1534 1534 1533 1533 1530 1530 1530 1530 1531
1521 1523 1525 1527 1529 1531 1533 1534 1535 1536 1537 1538 1538 1538 1538 1538 1538 1538 1538 1538 1538 1537 1537 1536 1536 1535 1535 1534 1533 1533 1532 1531 1531 1531 1530 1530 1530 1530 1529 1527 1526 1527 1527
1519 1522 1524 1527 1528 1530 1532 1533 1534 1535 1536 1537 1537 1536 1536 1536 1536 1536 1536 1536 1535 1535 1534 1534 1534 1533 1532 1531 1531 1530 1529 1529 1528 1527 1527 1527 1527 1527 1526 1525 1523 1523 1523
1517 1520 1523 1525 1527 1529 1530 1531 1533 1534 1535 1535 1535 1534 1534 1534 1534 1534 1534 1533 1533 1532 1532 1532 1531 1530 1530 1529 1528 1527 1526 1525 1525 1524 1524 1523 1523 1523 1523 1522 1521 1520 1519
1514 1517 1520 1522 1524 1526 1528 1530 1531 1532 1533 1533 1533 1533 1532 1532 1532 1532 1531 1531 1530 1530 1530 1529 1528 1528 1527 1526 1525 1524 1523 1522 1521 1521 1520 1520 1520 1519 1519 1519 1518 1516 1515
1511 1514 1517 1520 1522 1524 1526 1528 1529 1531 1531 1531 1531 1531 1531 1530 1530 1530 1529 1529 1528 1528 1527 1526 1525 1524 1523 1522 1521 1520 1520 1519 1518 1517 1517 1516 1515 1515 1515 1515 1514 1514 1511
1508 1511 1514 1516 1519 1521 1524 1526 1527 1528 1529 1529 1529 1529 1528 1528 1528 1527 1527 1526 1526 1525 1524 1523 1522 1521 1520 1519 1518 1517 1516 1515 1514 1514 1512 1512 1511 1511 1510 1510 1510 1510 1509
1504 1507 1510 1513 1516 1519 1521 1523 1525 1526 1526 1527 1527 1527 1526 1526 1526 1525 1524 1524 1523 1522 1521 1520 1519 1518 1517 1516 1515 1514 1513 1512 1511 1510 1508 1507 1507 1506 1505 1505 1505 1505 1504
1500 1503 1507 1511 1514 1516 1519 1520 1522 1523 1524 1524 1525 1524 1524 1524 1523 1523 1522 1521 1520 1519 1518 1517 1516 1515 1514 1513 1511 1510 1509 1508 1507 1505 1504 1503 1502 1501 1501 1500 1500 1499 1499
1497 1501 1504 1508 1510 1513 1515 1517 1519 1520 1521 1522 1522 1522 1521 1521 1521 1520 1519 1518 1517 1516 1515 1514 1513 1512 1510 1509 1508 1507 1505 1504 1503 1501 1500 1499 1498 1496 1496 1495 1494 1493 1493
1493 1497 1501 1504 1507 1510 1512 1514 1516 1517 1518 1519 1519 1519 1519 1518 1518 1517 1516 1515 1514 1513 1512 1511 1510 1508 1507 1505 1504 1502 1501 1500 1498 1497 1496 1494 1493 1491 1490 1489 1488 1488 1487
1490 1493 1497 1500 1504 1506 1509 1510 1512 1514 1514 1515 1516 1516 1516 1515 1515 1514 1513 1512 1511 1510 1509 1508 1506 1504 1503 1501 1500 1498 1496 1495 1493 1492 1491 1489 1488 1486 1485 1484 1483 1482 1481
1486 1490 1494 1497 1500 1502 1505 1507 1508 1510 1511 1512 1512 1512 1512 1512 1512 1511 1510 1509 1508 1507 1506 1504 1502 1500 1499 1497 1495 1493 1492 1490 1488 1487 1485 1484 1482 1481 1479 1478 1477 1477 1476
1482 1486 1489 1492 1495 1498 1500 1503 1505 1506 1507 1508 1508 1509 1509 1509 1509 1508 1507 1506 1505 1503 1502 1500 1498 1496 1494 1492 1491 1489 1487 1485 1483 1481 1479 1478 1476 1475 1474 1472 1471 1471 1470
1479 1482 1485 1489 1492 1495 1497 1500 1501 1502 1503 1504 1505 1505 1505 1505 1505 1505 1504 1502 1501 1500 1498 1496 1494 1492 1490 1488 1486 1484 1482 1479 1478 1476 1474 1472 1471 1470 1468 1467 1465 1464 1464
1476 1479 1482 1485 1488 1491 1493 1496 1497 1498 1499 1500 1501 1501 1502 1502 1501 1500 1500 1499 1497 1495 1494 1492 1490 1487 1485 1483 1481 1479 1476 1474 1472 1471 1469 1467 1465 1464 1463 1461 1459 1458 1457
1474 1477 1480 1482 1485 1487 1489 1491 1493 1494 1495 1496 1497 1498 1498 1498 1497 1496 1495 1494 1493 1491 1489 1487 1485 1483 1480 1478 1476 1474 1471 1469 1467 1465 1463 1462 1460 1458 1457 1455 1454 1452 1451
1473 1475 1477 1479 1481 1483 1485 1487 1489 1490 1492 1493 1493 1494 1494 1494 1493 1492 1491 1489 1488 1486 1484 1482 1480 1478 1475 1473 1471 1468 1465 1463 1461 1459 1457 1456 1454 1452 1451 1449 1447 1446 1445
1471 1473 1474 1476 1478 1480 1482 1483 1485 1487 1488 1489 1489 1490 1489 1489 1488 1487 1486 1484 1483 1481 1479 1477 1474 1472 1470 1467 1465 1463 1460 1458 1455 1453 1452 1450 1448 1446 1445 1443 1441 1439 1438
1471 1472 1473 1474 1476 1477 1479 1480 1482 1484 1485 1485 1485 1485 1485 1484 1483 1482 1481 1479 1477 1475 1472 1470 1468 1466 1464 1461 1459 1457 1454 1452 1449 1447 1445 1444 1442 1440 1438 1436 1434 1432 1430
1470 1471 1472 1473 1474 1475 1477 1478 1480 1481 1481 1481 1481 1481 1480 1479 1478 1477 1475 1473 1471 1469 1466 1464 1462 1459 1457 1455 1453 1451 1448 1446 1443 1441 1439 1437 1435 1433 1431 1429 1427 1425 1424
1471 1471 1471 1472 1473 1474 1475 1477 1478 1478 1478 1478 1477 1476 1475 1474 1472 1471 1469 1467 1465 1463 1461 1458 1456 1453 1450 1449 1447 1445 1442 1440 1438 1435 1433 1431 1429 1426 1424 1422 1420 1418 1417
1471 1471 1472 1472 1472 1473 1474 1474 1475 1474 1474 1473 1472 1471 1470 1468 1466 1464 1462 1460 1459 1456 1454 1452 1449 1446 1444 1442 1440 1438 1436 1434 1431 1429 1426 1424 1422 1420 1417 1415 1413 1412 1410